{"data":{"norad_id":58011,"intl_designator":"2023-153W","name":"STARLINK-30497","alt_names":[],"object_type":"PAYLOAD","status":"ACTIVE","operator":null,"country":"US","launch_date":"2023-10-05","launch_site_code":"AFETR","launch_vehicle":null,"mission":null,"orbit_class":"UNKNOWN","rcs_meters":null,"size_class":null,"mass_kg":null,"dimensions":null,"purposes":["comms"],"wikipedia_slug":null,"has_3d_model":false,"image_url":null,"decayed_at":null,"tle_current":{"epoch":"2026-09-20T16:40:54.707232Z","epoch_age_seconds":121552,"freshness":"FRESH","line1":"1 58011U 23153W   26263.69507763  .00000015  00000+0  10084-4 0  9993","line2":"2 58011  43.0035  45.4342 0001071 279.6573  80.4158 15.27577918164720","mean_motion":15.27577918,"eccentricity":0.0001071,"inclination_deg":43.0035,"raan_deg":45.4342,"arg_perigee_deg":279.6573,"mean_anomaly_deg":80.4158,"bstar":1.0084e-5,"rev_number":16472,"period_min":94.266877193756,"perigee_km":482.32049660515,"apogee_km":483.7901640023,"semimajor_km":6861.1923303037,"source":"CELESTRAK","updated_at":"2026-09-21T09:00:33.756971Z"}}}